Weather in Capetown

South Africa     33˚55′18″S   18˚25′22″E
temp.,
°C
wind,
m/s
gust,
m/s
humid.,
%
clouds,
%
prec.,
mm/h
press.,
hPa
HPBL,
m
29 november, sun
sun2923:00+16˚sse711763 0.0 1020779
02:00+16˚sse7107825 0.0 1019818
05:00+16˚sse587759 0.0 1019664
08:00+17˚sse576932 0.0 1019675
11:00+19˚s67590 0.0 1018623
14:00+20˚s67550 0.0 1016527
17:00+19˚s79580 0.0 1014630
20:00+17˚s710690 0.0 1015633
30 november, mon
mon3023:00+17˚sse69730 0.0 1015579
02:00+16˚s68770 0.0 1013588
05:00+16˚s57780 0.0 1012619
08:00+17˚ssw46662 0.0 1014763
11:00+19˚ssw555413 0.0 1014918
14:00+20˚ssw554913 0.0 10141005
17:00+20˚ssw45510 0.0 1013987
20:00+18˚sw346211 0.0 1014952
1 december, tue
tue123:00+17˚ssw446325 0.1 1017935
02:00+16˚sw346163 0.1 1016970
05:00+16˚sw346699 0.1 1016676
08:00+16˚ssw346593 0.3 1018782
11:00+19˚s455699 0.1 10191115
14:00+19˚s775284 0.1 10181190
17:00+19˚s795521 0.0 10181125
20:00+17˚sse8106810 0.0 10191089
2 december, wed
wed223:00+16˚sse912692 0.1 10201111
02:00+15˚se1014692 0.1 10191088
05:00+15˚se913694 0.0 1020955
08:00+16˚se911602 0.0 1020814
11:00+20˚se910450 0.0 1020923
14:00+21˚sse1014440 0.0 1018814
17:00+21˚sse1215480 0.0 1017764
20:00+18˚se1012570 0.0 1017687
3 december, thu
thu323:00+16˚se810640 0.0 1017602
02:00+15˚se46670 0.0 1015386
05:00+15˚se34690 0.0 1013238
08:00+17˚se34600 0.0 1014279
11:00+22˚s33440 0.0 1014392
14:00+25˚s55400 0.0 1012487
17:00+23˚s710540 0.0 1011392
20:00+21˚sse69590 0.0 1012399